FW3135 Weather Reports


time (UTC)temp
C
wind
direction
speed
KPH
gust
KPH
rain 1hr
cm
rain 24hr
cm
rain mn
cm
humidity
%
barometer
mb
20200705071318 20 76 6.4 16.1 0.00 0.00 0.00 63 1020.6
20200705070816 20 64 8.0 16.1 0.00 0.00 0.00 63 1020.7
20200705070322 20 85 4.8 8.0 0.00 0.00 0.00 64 1020.6
20200705065819 20 94 1.6 6.4 0.00 0.00 0.00 65 1020.6
20200705065325 20 350 0.0 6.4 0.00 0.00 0.00 65 1020.5
20200705064823 20 350 1.6 6.4 0.00 0.00 0.00 65 1020.6
20200705064322 19 33 3.2 6.4 0.00 0.00 0.00 66 1020.5
20200705063828 19 344 3.2 8.0 0.00 0.00 0.00 66 1020.5
20200705063327 19 13 4.8 14.5 0.00 0.00 0.00 66 1020.4
20200705062832 18 20 6.4 14.5 0.00 0.00 0.00 67 1020.4
20200705062331 18 42 3.2 12.9 0.00 0.00 0.00 67 1020.5
20200705061830 18 360 6.4 12.9 0.00 0.00 0.00 67 1020.4
20200705061334 18 55 6.4 12.9 0.00 0.00 0.00 67 1020.4
20200705060812 18 5 4.8 12.9 0.00 0.00 0.00 67 1020.4
20200705060330 18 47 3.2 8.0 0.00 0.00 0.00 67 1020.4
20200705055813 18 42 3.2 14.5 0.00 0.00 0.00 67 1020.4
20200705055312 18 41 6.4 14.5 0.00 0.00 0.00 67 1020.4
20200705054838 18 5 6.4 14.5 0.00 0.00 0.00 67 1020.3
20200705054315 18 35 6.4 20.9 0.00 0.00 0.00 67 1020.3
20200705053813 18 27 12.9 24.1 0.00 0.00 0.00 67 1020.4
20200705053339 18 21 12.9 24.1 0.00 0.00 0.00 67 1020.3
20200705052816 18 350 9.7 17.7 0.00 0.00 0.00 67 1020.2
20200705052315 18 348 6.4 17.7 0.00 0.00 0.00 67 1020.3
20200705051837 18 66 8.0 17.7 0.00 0.00 0.00 67 1020.2
20200705051315 18 97 8.0 14.5 0.00 0.00 0.00 68 1020.2
20200705050813 18 16 8.0 12.9 0.00 0.00 0.00 67 1020.2
20200705050318 18 39 8.0 16.1 0.00 0.00 0.00 67 1020.2
20200705045813 18 50 8.0 16.1 0.00 0.00 0.00 67 1020.2
20200705045312 18 5 3.2 12.9 0.00 0.00 0.00 67 1020.2
20200705044817 18 5 6.4 16.1 0.00 0.00 0.00 67 1020.1
20200705044317 18 25 4.8 9.7 0.00 0.00 0.00 67 1020.2
20200705043822 18 355 3.2 8.0 0.00 0.00 0.00 67 1020.2
20200705043320 18 58 1.6 8.0 0.00 0.00 0.00 67 1020.2
20200705042818 18 15 1.6 12.9 0.00 0.00 0.00 67 1020.1
20200705042324 18 355 4.8 17.7 0.00 0.00 0.00 67 1020.2
20200705041821 18 18 1.6 17.7 0.00 0.00 0.00 66 1020.1
20200705041320 18 10 6.4 16.1 0.00 0.00 0.00 66 1020.1
20200705040825 18 55 6.4 16.1 0.00 0.00 0.00 65 1020.2
20200705040324 19 348 6.4 16.1 0.00 0.00 0.00 65 1020.2
20200705035827 19 66 6.4 14.5 0.00 0.00 0.00 65 1020.2
20200705035326 19 29 4.8 12.9 0.00 0.00 0.00 64 1020.2
20200705034823 19 38 1.6 9.7 0.00 0.00 0.00 64 1020.2
20200705034327 19 14 3.2 9.7 0.00 0.00 0.00 64 1020.2
20200705033813 19 360 4.8 12.9 0.00 0.00 0.00 64 1020.3
20200705033339 19 338 4.8 12.9 0.00 0.00 0.00 64 1020.3
20200705032817 19 9 4.8 14.5 0.00 0.00 0.00 64 1020.2
20200705032316 19 335 4.8 14.5 0.00 0.00 0.00 64 1020.2
20200705031822 19 40 6.4 17.7 0.00 0.00 0.00 64 1020.3
20200705031316 19 9 9.7 19.3 0.00 0.00 0.00 64 1020.3
20200705030815 18 350 8.0 19.3 0.00 0.00 0.00 64 1020.5
20200705030319 18 346 3.2 12.9 0.00 0.00 0.00 64 1020.5
20200705025817 18 338 3.2 6.4 0.00 0.00 0.00 63 1020.5
20200705025323 19 317 1.6 9.7 0.00 0.00 0.00 63 1020.6
20200705024821 19 316 4.8 9.7 0.00 0.00 0.00 63 1020.5
20200705024319 19 17 4.8 11.3 0.00 0.00 0.00 63 1020.6
20200705023824 19 316 6.4 11.3 0.00 0.00 0.00 63 1020.8
20200705023321 19 5 1.6 9.7 0.00 0.00 0.00 62 1020.8
20200705022817 19 9 4.8 12.9 0.00 0.00 0.00 63 1020.8
20200705022322 19 5 3.2 16.1 0.00 0.00 0.00 63 1021.0
20200705021820 19 5 6.4 16.1 0.00 0.00 0.00 63 1021.0
20200705021318 19 325 6.4 19.3 0.00 0.00 0.00 63 1021.0
20200705020823 19 342 12.9 19.3 0.00 0.00 0.00 64 1021.0
20200705020322 19 355 12.9 19.3 0.00 0.00 0.00 64 1021.0
20200705015828 19 39 9.7 17.7 0.00 0.00 0.00 65 1021.0
20200705015325 18 5 6.4 16.1 0.00 0.00 0.00 65 1021.1
20200705014824 18 96 4.8 9.7 0.00 0.00 0.00 65 1021.3
20200705014329 18 36 3.2 17.7 0.00 0.00 0.00 64 1021.3
20200705013828 18 360 4.8 17.7 0.00 0.00 0.00 64 1021.4
20200705013334 18 62 4.8 12.9 0.00 0.00 0.00 64 1021.4
20200705012831 18 46 6.4 12.9 0.00 0.00 0.00 64 1021.4
20200705012330 19 329 3.2 9.7 0.00 0.00 0.00 64 1021.5
20200705011835 19 60 3.2 9.7 0.00 0.00 0.00 64 1021.5
20200705011314 19 105 1.6 9.7 0.00 0.00 0.00 64 1021.5
20200705010832 19 223 1.6 8.0 0.00 0.00 0.00 63 1021.6
20200705010338 19 190 3.2 19.3 0.00 0.00 0.00 63 1021.5
20200705005817 19 14 4.8 19.3 0.00 0.00 0.00 63 1021.5
20200705005315 19 255 6.4 14.5 0.00 0.00 0.00 63 1021.4
20200705004821 19 45 4.8 14.5 0.00 0.00 0.00 63 1021.5
20200705004319 19 173 3.2 12.9 0.00 0.00 0.00 62 1021.6
20200705003817 19 146 4.8 14.5 0.00 0.00 0.00 62 1021.7
20200705003322 19 171 6.4 14.5 0.00 0.00 0.00 62 1021.7
20200705002821 19 316 6.4 19.3 0.00 0.00 0.00 62 1021.7
20200705002320 20 40 4.8 14.5 0.00 0.00 0.00 62 1021.8
20200705001825 20 355 6.4 32.2 0.00 0.00 0.00 61 1021.8
20200705001323 20 5 17.7 33.8 0.00 0.00 0.00 61 1021.5
20200705000828 20 15 22.5 41.8 0.00 0.00 0.00 61 1021.2
20200705000326 20 30 25.7 41.8 0.00 0.00 0.00 61 1021.3
20200704235832 20 41 25.7 45.1 0.00 0.00 0.00 61 1021.4
20200704235331 20 12 29.0 45.1 0.00 0.00 0.00 61 1021.5
20200704234830 20 12 25.7 40.2 0.00 0.00 0.00 61 1021.4
20200704234334 20 5 27.4 40.2 0.00 0.00 0.00 60 1021.4
20200704233831 20 360 24.1 43.5 0.00 0.00 0.00 60 1021.5
20200704233330 20 347 27.4 43.5 0.00 0.00 0.00 60 1021.5
20200704232835 20 32 22.5 41.8 0.00 0.00 0.00 60 1021.6
20200704232329 20 17 25.7 41.8 0.00 0.00 0.00 60 1021.6
20200704231827 20 9 20.9 41.8 0.00 0.00 0.00 59 1021.6
20200704231331 20 5 25.7 43.5 0.00 0.00 0.00 59 1021.7
20200704230830 20 45 22.5 43.5 0.00 0.00 0.00 59 1021.6
20200704230336 20 22 24.1 40.2 0.00 0.00 0.00 59 1021.6
20200704225832 20 51 22.5 43.5 0.00 0.00 0.00 59 1021.6
20200704225331 20 14 25.7 43.5 0.00 0.00 0.00 60 1021.7
20200704224837 20 11 27.4 43.5 0.00 0.00 0.00 60 1021.6
20200704224315 20 9 24.1 43.5 0.00 0.00 0.00 60 1021.7
20200704223840 20 44 24.1 46.7 0.00 0.00 0.00 60 1021.8
20200704223318 20 13 29.0 46.7 0.00 0.00 0.00 60 1021.6
20200704222816 20 11 24.1 46.7 0.00 0.00 0.00 59 1021.6
20200704222315 20 355 27.4 43.5 0.00 0.00 0.00 59 1021.6
20200704221821 20 360 27.4 46.7 0.00 0.00 0.00 59 1021.6
20200704221320 20 16 27.4 46.7 0.00 0.00 0.00 59 1021.7
20200704220818 20 61 25.7 41.8 0.00 0.00 0.00 58 1021.7
20200704220324 20 322 22.5 41.8 0.00 0.00 0.00 58 1021.8
20200704215822 20 20 22.5 41.8 0.00 0.00 0.00 58 1021.7
20200704215328 20 63 22.5 41.8 0.00 0.00 0.00 58 1021.7
20200704214827 20 9 25.7 41.8 0.00 0.00 0.00 58 1021.7
20200704214324 20 29 25.7 41.8 0.00 0.00 0.00 58 1021.8
20200704213830 20 347 24.1 41.8 0.00 0.00 0.00 58 1021.7
20200704213328 20 345 27.4 48.3 0.00 0.00 0.00 58 1021.6
20200704212827 20 13 27.4 48.3 0.00 0.00 0.00 58 1021.6
20200704212333 20 5 25.7 38.6 0.00 0.00 0.00 57 1021.6
20200704211831 20 351 24.1 40.2 0.00 0.00 0.00 57 1021.6
20200704211337 20 331 20.9 40.2 0.00 0.00 0.00 56 1021.4
20200704210815 20 23 24.1 46.7 0.00 0.00 0.00 56 1021.6
20200704210333 20 19 29.0 46.7 0.00 0.00 0.00 57 1021.5
20200704205838 20 14 29.0 43.5 0.00 0.00 0.00 56 1021.5
20200704205316 21 350 27.4 43.5 0.00 0.00 0.00 56 1021.4
20200704204816 21 34 25.7 43.5 0.00 0.00 0.00 56 1021.4
20200704204320 21 355 25.7 45.1 0.00 0.00 0.00 55 1021.4
20200704203819 21 23 24.1 49.9 0.00 0.00 0.00 55 1021.4
20200704203317 21 360 24.1 49.9 0.00 0.00 0.00 54 1021.3
20200704202823 21 355 22.5 41.8 0.00 0.00 0.00 54 1021.3
20200704202322 21 5 25.7 41.8 0.00 0.00 0.00 54 1021.3
20200704201820 21 355 25.7 40.2 0.00 0.00 0.00 53 1021.3
20200704201326 21 15 24.1 37.0 0.00 0.00 0.00 52 1021.2
20200704200823 21 13 24.1 38.6 0.00 0.00 0.00 52 1021.3
20200704200322 21 360 24.1 38.6 0.00 0.00 0.00 51 1021.3
20200704195826 22 355 22.5 38.6 0.00 0.00 0.00 51 1021.3
20200704195324 22 338 24.1 38.6 0.00 0.00 0.00 50 1021.4
20200704194830 22 5 25.7 43.5 0.00 0.00 0.00 49 1021.3
20200704194328 22 13 19.3 43.5 0.00 0.00 0.00 48 1021.3
20200704193828 22 5 24.1 38.6 0.00 0.00 0.00 47 1021.3
20200704193333 23 347 22.5 41.8 0.00 0.00 0.00 46 1021.3
20200704192832 23 17 24.1 43.5 0.00 0.00 0.00 46 1021.4
20200704192336 23 49 25.7 43.5 0.00 0.00 0.00 46 1021.4
20200704191815 23 26 27.4 43.5 0.00 0.00 0.00 45 1021.2
20200704191333 23 348 22.5 43.5 0.00 0.00 0.00 44 1021.2
20200704190838 23 24 22.5 46.7 0.00 0.00 0.00 43 1021.2
20200704190317 23 5 27.4 46.7 0.00 0.00 0.00 43 1021.1
20200704185816 24 25 27.4 43.5 0.00 0.00 0.00 43 1021.3
20200704185322 24 360 22.5 37.0 0.00 0.00 0.00 42 1021.3
20200704184819 24 360 17.7 38.6 0.00 0.00 0.00 43 1021.3
20200704184318 24 17 24.1 40.2 0.00 0.00 0.00 42 1021.4
20200704183823 24 360 25.7 40.2 0.00 0.00 0.00 43 1021.3
20200704183322 25 26 20.9 38.6 0.00 0.00 0.00 42 1021.4
20200704182819 25 12 22.5 37.0 0.00 0.00 0.00 42 1021.4
20200704182323 25 24 22.5 37.0 0.00 0.00 0.00 42 1021.3
20200704181822 25 46 20.9 43.5 0.00 0.00 0.00 41 1021.3
20200704181330 25 5 27.4 43.5 0.00 0.00 0.00 40 1021.3
20200704180828 25 5 22.5 45.1 0.00 0.00 0.00 40 1021.3
20200704180327 25 355 27.4 45.1 0.00 0.00 0.00 40 1021.2
20200704175832 26 51 20.9 40.2 0.00 0.00 0.00 39 1021.3
20200704175331 26 355 22.5 40.2 0.00 0.00 0.00 39 1021.3
20200704174827 26 355 19.3 40.2 0.00 0.00 0.00 39 1021.3
20200704174327 26 32 25.7 40.2 0.00 0.00 0.00 36 1021.3
20200704173825 26 79 19.3 38.6 0.00 0.00 0.00 36 1021.3
20200704173331 26 355 20.9 38.6 0.00 0.00 0.00 36 1021.2
20200704172829 27 360 22.5 38.6 0.00 0.00 0.00 35 1021.3
20200704172328 27 355 27.4 41.8 0.00 0.00 0.00 34 1021.2
20200704171834 27 346 20.9 41.8 0.00 0.00 0.00 34 1021.1
20200704171331 27 30 25.7 41.8 0.00 0.00 0.00 33 1021.3
20200704170829 27 23 20.9 37.0 0.00 0.00 0.00 34 1021.4
20200704170334 28 29 19.3 37.0 0.00 0.00 0.00 34 1021.4
20200704165833 28 23 17.7 32.2 0.00 0.00 0.00 34 1021.4
20200704165338 28 355 17.7 33.8 0.00 0.00 0.00 34 1021.4
20200704164817 28 5 17.7 33.8 0.00 0.00 0.00 35 1021.5
20200704164332 28 19 17.7 32.2 0.00 0.00 0.00 34 1021.4
20200704163838 28 23 17.7 30.6 0.00 0.00 0.00 33 1021.5
20200704163316 28 360 19.3 33.8 0.00 0.00 0.00 33 1021.5
20200704162813 29 26 14.5 29.0 0.00 0.00 0.00 31 1021.6
20200704162318 29 360 14.5 29.0 0.00 0.00 0.00 31 1021.5
20200704161816 29 66 17.7 30.6 0.00 0.00 0.00 31 1021.6
20200704161314 29 5 14.5 29.0 0.00 0.00 0.00 31 1021.6
20200704160819 29 46 16.1 27.4 0.00 0.00 0.00 32 1021.6
20200704160318 28 24 12.9 30.6 0.00 0.00 0.00 33 1021.6
20200704155823 28 59 20.9 30.6 0.00 0.00 0.00 32 1021.7
20200704155319 29 17 16.1 27.4 0.00 0.00 0.00 33 1021.8
20200704154818 28 15 12.9 32.2 0.00 0.00 0.00 34 1021.8
20200704154323 28 19 20.9 32.2 0.00 0.00 0.00 33 1021.7
20200704153823 28 349 19.3 33.8 0.00 0.00 0.00 33 1021.7
20200704153321 28 351 20.9 33.8 0.00 0.00 0.00 32 1021.8
20200704152827 29 13 20.9 30.6 0.00 0.00 0.00 33 1021.8
20200704152324 29 36 16.1 30.6 0.00 0.00 0.00 34 1021.7
20200704151831 28 11 20.9 32.2 0.00 0.00 0.00 33 1021.8
20200704151329 29 355 19.3 32.2 0.00 0.00 0.00 33 1021.8
20200704150827 29 53 19.3 32.2 0.00 0.00 0.00 33 1021.9
20200704150333 29 355 19.3 29.0 0.00 0.00 0.00 33 1021.8
20200704145829 29 24 17.7 32.2 0.00 0.00 0.00 32 1021.9
20200704145336 29 17 19.3 32.2 0.00 0.00 0.00 34 1022.0
20200704144813 29 60 16.1 27.4 0.00 0.00 0.00 33 1022.0
20200704144330 29 338 12.9 25.7 0.00 0.00 0.00 34 1022.1
20200704143835 28 5 17.7 30.6 0.00 0.00 0.00 34 1022.1
20200704143314 29 5 19.3 30.6 0.00 0.00 0.00 34 1022.2
20200704142833 29 53 16.1 27.4 0.00 0.00 0.00 35 1022.3
20200704142338 29 22 16.1 29.0 0.00 0.00 0.00 34 1022.3
20200704141817 29 360 14.5 29.0 0.00 0.00 0.00 34 1022.3
20200704141315 30 37 12.9 29.0 0.00 0.00 0.00 33 1022.3
20200704140813 30 17 11.3 22.5 0.00 0.00 0.00 33 1022.4
20200704140319 30 19 11.3 22.5 0.00 0.00 0.00 34 1022.5
20200704135816 30 36 16.1 24.1 0.00 0.00 0.00 34 1022.5
20200704135322 30 5 8.0 22.5 0.00 0.00 0.00 33 1022.6
20200704134820 29 44 9.7 22.5 0.00 0.00 0.00 34 1022.7
20200704134318 29 355 11.3 25.7 0.00 0.00 0.00 34 1022.6
20200704133824 29 20 11.3 25.7 0.00 0.00 0.00 34 1022.8
20200704133322 28 31 11.3 24.1 0.00 0.00 0.00 35 1022.9
20200704132828 28 5 14.5 25.7 0.00 0.00 0.00 35 1022.8
20200704132325 28 32 14.5 29.0 0.00 0.00 0.00 36 1022.9
20200704131822 28 336 16.1 29.0 0.00 0.00 0.00 36 1022.9
20200704131328 28 20 11.3 25.7 0.00 0.00 0.00 36 1022.9
20200704130827 28 52 16.1 24.1 0.00 0.00 0.00 36 1023.0
20200704130325 28 349 12.9 24.1 0.00 0.00 0.00 37 1023.0
20200704125829 28 33 12.9 25.7 0.00 0.00 0.00 36 1022.9
20200704125328 28 360 8.0 25.7 0.00 0.00 0.00 38 1023.0
20200704124835 28 319 11.3 29.0 0.00 0.00 0.00 37 1023.0
20200704124313 28 5 16.1 29.0 0.00 0.00 0.00 37 1022.9
20200704123823 28 345 16.1 29.0 0.00 0.00 0.00 38 1023.0
20200704123329 28 49 11.3 27.4 0.00 0.00 0.00 38 1023.2
20200704122826 28 342 12.9 32.2 0.00 0.00 0.00 39 1023.2
20200704122323 27 14 19.3 32.2 0.00 0.00 0.00 38 1023.3
20200704121828 27 34 16.1 25.7 0.00 0.00 0.00 38 1023.3
20200704121325 27 355 14.5 24.1 0.00 0.00 0.00 39 1023.5
20200704120831 27 14 14.5 24.1 0.00 0.00 0.00 39 1023.4
20200704120329 27 343 11.3 25.7 0.00 0.00 0.00 39 1023.6
20200704115827 27 11 14.5 25.7 0.00 0.00 0.00 39 1023.6
20200704115314 27 34 9.7 27.4 0.00 0.00 0.00 40 1023.6
20200704114830 27 17 14.5 27.4 0.00 0.00 0.00 39 1023.6
20200704114334 27 12 14.5 24.1 0.00 0.00 0.00 40 1023.7
20200704113832 27 49 9.7 24.1 0.00 0.00 0.00 41 1023.7
20200704113331 27 348 9.7 20.9 0.00 0.00 0.00 41 1023.8
20200704112836 26 35 11.3 22.5 0.00 0.00 0.00 41 1023.8
20200704112314 26 40 14.5 22.5 0.00 0.00 0.00 41 1023.8
20200704111833 26 360 11.3 24.1 0.00 0.00 0.00 41 1023.9
20200704111338 26 24 14.5 24.1 0.00 0.00 0.00 41 1023.9
20200704110817 26 355 6.4 17.7 0.00 0.00 0.00 42 1024.0
20200704110315 26 32 11.3 17.7 0.00 0.00 0.00 41 1023.9
20200704105820 26 28 6.4 19.3 0.00 0.00 0.00 41 1023.8
20200704105318 26 70 6.4 20.9 0.00 0.00 0.00 41 1023.9
20200704104816 26 5 11.3 22.5 0.00 0.00 0.00 41 1023.8
20200704104321 26 34 9.7 22.5 0.00 0.00 0.00 41 1023.8
20200704103819 26 98 4.8 20.9 0.00 0.00 0.00 42 1023.9
20200704103326 26 307 8.0 24.1 0.00 0.00 0.00 42 1023.9
20200704102823 25 315 11.3 24.1 0.00 0.00 0.00 42 1023.9
20200704102322 25 45 12.9 22.5 0.00 0.00 0.00 41 1023.8
20200704101827 25 86 4.8 22.5 0.00 0.00 0.00 42 1023.9
20200704101326 25 31 14.5 22.5 0.00 0.00 0.00 42 1023.8
20200704100825 25 17 12.9 20.9 0.00 0.00 0.00 43 1023.8
20200704100329 25 42 3.2 16.1 0.00 0.00 0.00 44 1023.9
20200704095827 25 28 6.4 24.1 0.00 0.00 0.00 44 1023.8
20200704095331 24 5 6.4 29.0 0.00 0.00 0.00 44 1023.8
20200704094830 24 11 4.8 29.0 0.00 0.00 0.00 46 1023.9
20200704094328 24 38 9.7 24.1 0.00 0.00 0.00 46 1023.8
20200704093834 23 14 9.7 29.0 0.00 0.00 0.00 47 1023.8
20200704093313 23 45 11.3 29.0 0.00 0.00 0.00 47 1023.8
20200704092831 23 35 6.4 27.4 0.00 0.00 0.00 48 1023.7
20200704092318 23 39 4.8 22.5 0.00 0.00 0.00 50 1023.9
20200704091815 23 71 4.8 17.7 0.00 0.00 0.00 51 1023.8
20200704091339 22 320 8.0 20.9 0.00 0.00 0.00 51 1023.9
20200704090817 22 346 11.3 20.9 0.00 0.00 0.00 52 1023.8
20200704090314 22 333 4.8 22.5 0.00 0.00 0.00 53 1023.8
20200704085819 22 96 11.3 30.6 0.00 0.00 0.00 53 1023.7
20200704085328 21 11 16.1 30.6 0.00 0.00 0.00 53 1023.7
20200704084832 21 26 11.3 22.5 0.00 0.00 0.00 54 1023.7
20200704084330 21 344 8.0 22.5 0.00 0.00 0.00 55 1023.7
20200704083828 21 16 8.0 22.5 0.00 0.00 0.00 55 1023.7
20200704083333 21 36 9.7 24.1 0.00 0.00 0.00 56 1023.7
20200704082831 21 77 3.2 22.5 0.00 0.00 0.00 56 1023.8
20200704082329 20 108 8.0 22.5 0.00 0.00 0.00 56 1023.8
20200704081835 20 42 9.7 20.9 0.00 0.00 0.00 56 1023.6
20200704081332 20 19 8.0 16.1 0.00 0.00 0.00 57 1023.8
20200704080838 20 306 4.8 12.9 0.00 0.00 0.00 57 1023.8
20200704080316 20 74 1.6 19.3 0.00 0.00 0.00 58 1023.8
20200704075833 20 51 4.8 19.3 0.00 0.00 0.00 58 1023.8
20200704075337 20 304 4.8 19.3 0.00 0.00 0.00 58 1023.7
20200704074816 19 315 9.7 19.3 0.00 0.00 0.00 59 1023.8
20200704074313 19 25 6.4 20.9 0.00 0.00 0.00 59 1023.8
20200704073818 19 315 8.0 24.1 0.00 0.00 0.00 60 1023.8
20200704073316 18 30 6.4 25.7 0.00 0.00 0.00 60 1023.8
20200704072813 18 5 8.0 20.9 0.00 0.00 0.00 60 1023.7
20200704072318 18 23 4.8 17.7 0.00 0.00 0.00 61 1023.6
20200704071816 18 33 6.4 17.7 0.00 0.00 0.00 61 1023.6